Weather History for Denver Centennial, CO

Change the Weather History Date:

Wednesday, October 9, 2013

  Actual Average Record
Temperature  
Mean Temperature 53 °F -  
Max Temperature 64 °F 66 °F 82 °F (2003)
Min Temperature 41 °F 36 °F 28 °F (2000)
Degree Days  
Heating Degree Days 12    
Month to date heating degree days 119  
Growing Degree Days 3 (Base 50)    
Moisture  
Dew Point 37 °F    
Average Humidity 63    
Maximum Humidity 86    
Minimum Humidity 39    
Precipitation  
Precipitation 0.00 in - - ()
Month to date precipitation 0.00  
Year to date precipitation 16.81  
Sea Level Pressure  
Sea Level Pressure 29.85 in    
Wind  
Wind Speed 4 mph (North)    
Max Wind Speed 13 mph    
Max Gust Speed 17 mph    
Visibility 10 miles    
Events      
Averages and records for this station are not official NWS values.
T = Trace of Precipitation, MM = Missing Value Source: NWS Daily Summary

Daily Weather History Graph

Daily Weather History Graph

Search for Another Location

Airport:

Trip Planner

Search our weather history database for the weather conditions in past years. The results will help you decide how hot, cold, wet, or windy it might be!

Date:

Astronomy

Oct. 09, 2013 Rise Set
Actual Time 7:03 AM MDT 6:28 PM MDT
Civil Twilight 6:36 AM MDT 6:55 PM MDT
Nautical Twilight 6:05 AM MDT 7:26 PM MDT
Astronomical Twilight 5:34 AM MDT 7:58 PM MDT
Moon 12:00 PM MDT (10/9) 10:06 PM MDT (10/9)
Length of Visible Light 12h 19m
Length of Day
11h 25m
Waxing Crescent, 26% of the Moon is Illuminated
Oct 9
Waxing Crescent
Oct 11
First Quarter
Oct 18
Full
Oct 26
Last Quarter
Nov 3
New

Hourly Weather History & Observations

Time (MDT) Temp. Windchill Dew Point Humidity Pressure Visibility Wind Dir Wind Speed Gust Speed Precip Events Conditions
12:53 AM 48.9 °F - 33.1 °F 54% 29.73 in 10.0 mi Calm Calm - N/A   Clear
1:53 AM 52.0 °F - 32.0 °F 47% 29.73 in 10.0 mi Calm Calm - N/A   Clear
2:53 AM 46.0 °F - 34.0 °F 63% 29.75 in 10.0 mi Calm Calm - N/A   Clear
3:53 AM 44.1 °F 42.5 °F 33.1 °F 65% 29.76 in 10.0 mi East 3.5 mph - N/A   Clear
4:53 AM 43.0 °F 40.3 °F 33.1 °F 68% 29.78 in 10.0 mi SW 4.6 mph - N/A   Partly Cloudy
5:53 AM 45.0 °F 41.8 °F 32.0 °F 60% 29.81 in 10.0 mi South 5.8 mph - N/A   Partly Cloudy
6:53 AM 44.1 °F - 32.0 °F 63% 29.85 in 10.0 mi Calm Calm - N/A   Scattered Clouds
7:53 AM 45.0 °F 43.5 °F 35.1 °F 68% 29.87 in 10.0 mi East 3.5 mph - N/A   Mostly Cloudy
8:53 AM 55.0 °F - 37.0 °F 51% 29.86 in 10.0 mi Calm Calm - N/A   Mostly Cloudy
9:53 AM 57.9 °F - 32.0 °F 37% 29.88 in 10.0 mi North 10.4 mph - N/A   Mostly Cloudy
10:53 AM 59.0 °F - 36.0 °F 42% 29.88 in 10.0 mi North 5.8 mph - N/A   Scattered Clouds
11:53 AM 59.0 °F - 39.0 °F 48% 29.88 in 10.0 mi North 9.2 mph - N/A   Scattered Clouds
12:53 PM 59.0 °F - 39.0 °F 48% 29.87 in 10.0 mi Calm Calm - N/A   Mostly Cloudy
1:53 PM 61.0 °F - 39.0 °F 44% 29.83 in 10.0 mi ENE 5.8 mph - N/A   Scattered Clouds
2:53 PM 63.0 °F - 37.9 °F 40% 29.83 in 10.0 mi Variable 6.9 mph - N/A   Mostly Cloudy
3:53 PM 62.1 °F - 37.9 °F 41% 29.86 in 10.0 mi North 8.1 mph - N/A   Scattered Clouds
4:53 PM 60.1 °F - 37.9 °F 44% 29.86 in 10.0 mi NNE 9.2 mph - N/A   Mostly Cloudy
5:53 PM 57.9 °F - 39.0 °F 49% 29.88 in 10.0 mi North 8.1 mph - N/A   Mostly Cloudy
6:53 PM 55.0 °F - 39.9 °F 57% 29.91 in 10.0 mi NNW 8.1 mph - N/A   Mostly Cloudy
7:53 PM 54.0 °F - 39.9 °F 59% 29.92 in 10.0 mi NNW 8.1 mph - N/A   Mostly Cloudy
8:53 PM 52.0 °F - 42.1 °F 69% 29.90 in 10.0 mi NNW 10.4 mph - N/A   Mostly Cloudy
9:53 PM 50.0 °F - 42.1 °F 74% 29.91 in 10.0 mi NNE 5.8 mph - N/A   Mostly Cloudy
10:53 PM 46.9 °F - 42.1 °F 83% 29.93 in 10.0 mi NNW 4.6 mph - N/A   Scattered Clouds
11:53 PM 46.9 °F - 41.0 °F 80% 29.92 in 10.0 mi NW 3.5 mph - N/A   Scattered Clouds